This is the latest recevied weather packets stored in our database for station/object KC3AWA. If no packets are shown the sender has not sent any weather packets the latest 10 day(s).
| Time | Temp. | Humidity | Pressure | Rain* | Wind** | Luminosity | Snow |
|---|---|---|---|---|---|---|---|
| 1778005465 | 20.56° C | 53% | 1008.6 hPa | 0 mm | - | 112 W/m² | - |
| 1778005161 | 20.56° C | 53% | 1008.5 hPa | 0 mm | - | 211 W/m² | - |
| 1778004858 | 20.56° C | 54% | 1008.8 hPa | 0 mm | - | 154 W/m² | - |
| 1778004555 | 20.56° C | 53% | 1008.6 hPa | 0 mm | - | 166 W/m² | - |
| 1778004251 | 20.56° C | 53% | 1008.5 hPa | 0 mm | - | 195 W/m² | - |
| 1778003948 | 20.56° C | 53% | 1008.5 hPa | 0 mm | - | 113 W/m² | - |
| 1778003644 | 20.56° C | 53% | 1008.3 hPa | 0 mm | - | 163 W/m² | - |
| 1778003341 | 20.56° C | 53% | 1008.8 hPa | 0 mm | - | 159 W/m² | - |
| 1778003038 | 21.11° C | 52% | 1008.4 hPa | 0 mm | - | 165 W/m² | - |
| 1778002734 | 21.11° C | 51% | 1008.4 hPa | 0 mm | - | 332 W/m² | - |
| 1778002431 | 21.11° C | 51% | 1008.5 hPa | 0 mm | - | 404 W/m² | - |
| 1778002128 | 21.11° C | 52% | 1008.2 hPa | 0 mm | - | 915 W/m² | - |
| 1778001826 | 20.56° C | 52% | 1008.4 hPa | 0 mm | - | 909 W/m² | - |
| 1778001525 | 21.11° C | 53% | 1008.3 hPa | 0 mm | - | 267 W/m² | - |
| 1778001222 | 21.11° C | 53% | 1008.3 hPa | 0 mm | - | 339 W/m² | - |
| 1778000919 | 21.67° C | 53% | 1008.5 hPa | 0 mm | - | 411 W/m² | - |
| 1778000616 | 21.11° C | 53% | 1008.4 hPa | 0 mm | - | 366 W/m² | - |
| 1778000311 | 21.67° C | 53% | 1008.2 hPa | 0 mm | - | 330 W/m² | - |
| 1778000007 | 21.11° C | 55% | 1008.4 hPa | 0 mm | - | 418 W/m² | - |
| 1777999702 | 21.67° C | 52% | 1008.2 hPa | 0 mm | - | 490 W/m² | - |
| 1777999400 | 20.56° C | 56% | 1008.2 hPa | 0 mm | - | 884 W/m² | - |
| 1777999098 | 20.56° C | 57% | 1008.2 hPa | 0 mm | - | 392 W/m² | - |
| 1777998796 | 20° C | 56% | 1008.4 hPa | 0 mm | - | 936 W/m² | - |
| 1777998494 | 19.44° C | 59% | 1008.1 hPa | 0 mm | - | 314 W/m² | - |
| 1777998190 | 19.44° C | 59% | 1008.6 hPa | 0 mm | - | 259 W/m² | - |
* Rain latest hour (hover to see other rain measurements)
** Current wind speed in m/s (hover to see current wind gust speed)